Regional Weather Roundup
Issued by NWS

Home | Current Version | Previous Version | Graphics & Text | Print | Product List | Glossary On
Versions: 1 2 3 4 5 6 7 8 9 10 11 12 13 14 15 16 17 18 19 20 21 22 23 24 25 26 27 28 29 30 31 32 33 34 35 36 37 38 39 40 41 42 43 44 45 46 47 48 49 50
000
ASUS43 KIND 290609
RWRIN

WEATHER ROUNDUP FOR INDIANA
NATIONAL WEATHER SERVICE INDIANAPOLIS IN
200 AM EDT FRI MAY 29 2015

NOTE: "FAIR" INDICATES FEW OR NO CLOUDS BELOW 12,000 FEET WITH NO
SIGNIFICANT WEATHER AND/OR OBSTRUCTIONS TO VISIBILITY.

* - STATION DOES NOT REPORT WEATHER SUCH AS PRECIPITATION OR FOG.

+ - STATION NOT QUALITY CONTROLLED BY THE NATIONAL WEATHER SERVICE.
    USE DATA WITH CAUTION...ESPECIALLY DEWPOINT AND RELATIVE
    HUMIDITY OBSERVATIONS.

INZ001>003-010>013-019-020-290700-
NORTHWEST INDIANA

CITY           SKY/WX    TMP DP  RH WIND       PRES   REMARKS
GARY /AIRPORT/ PTCLDY    71  59  64 SE6       30.08R
KNOX *+        CLEAR     64  59  82 SE5       30.09S
LA PORTE +     PTCLDY    70  59  68 SE5       30.11R
6HR MIN TEMP:  70; 6HR MAX TEMP:  81;

MICHIGAN CITY+ PTCLDY    70  55  60 SE3       30.09S
MONTICELLO +   CLEAR     70  63  78 S5        30.09S
6HR MIN TEMP:  69; 6HR MAX TEMP:  80;

RENSSELAER +   PTCLDY    72  63  73 S7        30.10R
VALPARAISO     PTCLDY    69  58  67 SE5       30.10R
6HR MIN TEMP:  68; 6HR MAX TEMP:  79;


$$

LMZ046-743>745-290700-
SOUTHERN LAKE MICHIGAN

STATION/POSITION TIME  TEMP    WIND        PRES    WAVE
                       AIR SEA DIR/SP/G            HT
                 (UTC) (F)     (DEG/KT/KT) (MB)    (FT)
BURNS HARBOR     0600   73     140/  9/ 16 1019.0R
MICHIGAN CITY    0600   72     120/  9/ 12   N/A
5NW MICH CITY    0600   65 55  160/  8/ 10   N/A     1

$$

INZ004-005-014>016-021>024-290700-
NORTH CENTRAL INDIANA

CITY           SKY/WX    TMP DP  RH WIND       PRES   REMARKS
GOSHEN         PTCLDY    67  57  70 SE9       30.12S
6HR MIN TEMP:  64; 6HR MAX TEMP:  76;

LOGANSPORT +   CLEAR     66  57  72 SE7       30.11S
PERU/GRISSOM   CLEAR     68  63  83 S8        30.10S
6HR MIN TEMP:  68; 6HR MAX TEMP:  80;

ROCHESTER +    CLEAR     70  61  73 SE3       30.12R
SOUTH BEND     PTCLDY    69  57  65 SE9       30.11R
6HR MIN TEMP:  69; 6HR MAX TEMP:  80;

WARSAW +       PTCLDY    66  59  77 CALM      30.13R

$$

INZ006>009-017-018-025>027-290700-
NORTHEAST INDIANA

CITY           SKY/WX    TMP DP  RH WIND       PRES   REMARKS
ANGOLA *+      CLEAR     64  54  68 SE9       30.15S
AUBURN +       CLEAR     63  55  77 E3        30.15S
FORT WAYNE     MOCLDY    63  60  90 CALM      30.14S
6HR MIN TEMP:  63; 6HR MAX TEMP:  78;

HUNTINGTON +   PTCLDY    64  61  89 CALM      30.12S
6HR MIN TEMP:  64; 6HR MAX TEMP:  78;


$$

INZ028-029-035-036-043>045-051>053-290700-
WEST CENTRAL INDIANA

CITY           SKY/WX    TMP DP  RH WIND       PRES   REMARKS
CRAWFORDSVL +  CLEAR     68  58  72 S8        30.11R
6HR MIN TEMP:  67; 6HR MAX TEMP:  80;

GREENCASTLE +  CLEAR     64  59  82 S5        30.11S
LAFAYETTE      CLEAR     70  62  76 S5        30.10R
6HR MIN TEMP:  68; 6HR MAX TEMP:  80;

TERRE HAUTE    CLEAR     71  64  78 S7        30.10S
6HR MIN TEMP:  71; 6HR MAX TEMP:  80;


$$

INZ030>032-037>040-046>048-054>057-064-065-290700-
CENTRAL INDIANA

CITY           SKY/WX    TMP DP  RH WIND       PRES   REMARKS
CP ATTERBURY + CLEAR     63  61  94 CALM      30.13S
FISHERS *+     PTCLDY    66  64  94 S6        30.12S
FRANKFORT +    CLEAR     68  62  82 SE3       30.13S
6HR MIN TEMP:  66; 6HR MAX TEMP:  82;

GREENWOOD *+   CLEAR     68  61  77 S7        30.13F
INDIANAPOLIS   PTCLDY    69  61  75 S8        30.10S
6HR MIN TEMP:  69; 6HR MAX TEMP:  80;

-EAGLE CREEK   CLEAR     70  62  76 S3        30.11S
6HR MIN TEMP:  70; 6HR MAX TEMP:  81;

KOKOMO *+      CLEAR     68  61  77 S7        30.12S
6HR MIN TEMP:  68; 6HR MAX TEMP:  81;

MARION +       PTCLDY    67  60  79 S5        30.14R
MT COMFORT *+  PTCLDY    68  61  77 S6        30.13S
SHELBYVILLE    CLEAR     70  63  78 S5        30.12S
6HR MIN TEMP:  70; 6HR MAX TEMP:  82;

ZIONSVILLE +   CLEAR     68  61  76 S3        30.13S
6HR MIN TEMP:  68; 6HR MAX TEMP:  82;


$$

INZ033-034-041-042-049-050-058-059-290700-
EAST CENTRAL INDIANA

CITY           SKY/WX    TMP DP  RH WIND       PRES   REMARKS
MUNCIE         PTCLDY    69  63  81 S5        30.14S
6HR MIN TEMP:  69; 6HR MAX TEMP:  81;


$$

INZ060-061-067>069-081>083-085>088-290700-
SOUTHWEST INDIANA

CITY           SKY/WX    TMP DP  RH WIND       PRES   REMARKS
EVANSVILLE     CLEAR     73  65  75 SE5       30.09S
6HR MIN TEMP:  72; 6HR MAX TEMP:  82;

HUNTINGBURG *+ CLEAR     68  63  83 SE8       30.10F
6HR MIN TEMP:  68; 6HR MAX TEMP:  75;

WASHINGTON +   CLEAR     69  64  83 S6        30.10S
6HR MIN TEMP:  69; 6HR MAX TEMP:  81;


$$

INZ062-063-066-070>080-084-089>092-290700-
SOUTH CENTRAL AND SOUTHEAST INDIANA

CITY           SKY/WX    TMP DP  RH WIND       PRES   REMARKS
BLOOMINGTON    CLEAR     67  63  87 SE3       30.12S
6HR MIN TEMP:  67; 6HR MAX TEMP:  79;

MADISON *+     PTCLDY    68  63  83 CALM      30.15F
NORTH VERNON + CLEAR     68  68 100 CALM      30.13
SEYMOUR +      CLEAR     70  64  83 S5        30.11F

$$



USA.gov is the U.S. government's official web portal to all federal, state and local government web resources and services.